Hourly Weather Roundup
Issued by NWS Central Illinois

Home | Current Version | Previous Version | Text Only | Print | Product List | Glossary On
Versions: 1 2 3 4 5 6 7 8 9 10 11 12 13 14 15 16 17 18 19 20 21 22 23 24 25 26 27 28 29 30 31 32 33 34 35 36 37 38 39 40 41 42 43 44 45 46 47 48 49 50
000
NZUS43 KILX 271610
HWRILX

AREA WEATHER ROUNDUP
NATIONAL WEATHER SERVICE, LINCOLN IL
1000 AM CST FRI FEB 27 2015


CITY           SKY/WX    TMP DP  RH WIND       PRES   REMARKS
BLOOMINGTON    SUNNY      6  -3  66 S7        30.63R WCI  -6
CHAMPAIGN      SUNNY      2  -4  76 W7        30.63R WCI -11
DECATUR        SUNNY      5  -3  69 VRB3      30.65R
FLORA          SUNNY      6  -2  69 NW6       30.68S WCI  -5
GALESBURG      SUNNY     -3  -7  82 W6        30.66R WCI -15
JACKSONVILLE   SUNNY      2  -6  68 W7        30.67F WCI -10
LACON          SUNNY      3  -8  60 CALM      30.65R
LAWRENCEVILLE  SUNNY     14   5  67 NW7       30.67R WCI   4
LITCHFIELD     SUNNY      1  -7  69 NW6       30.66F WCI -10
$$


CITY           SKY/WX    TMP DP  RH WIND       PRES   REMARKS
LINCOLN        SUNNY      7  -2  66 CALM      30.70R
MACOMB         SUNNY     -1  -7  77 NW6       30.69S WCI -13
MATTOON        SUNNY      4  -4  69 NW6       30.64R WCI  -7
MT CARMEL AP   SUNNY     18   5  57 NW7       30.67R WCI   8
OLNEY-NOBLE AP SUNNY      9   0  66 W3        30.68S
PARIS          SUNNY      3  -4  75 W3        30.66R
PEORIA         SUNNY      5  -5  63 CALM      30.67R
PONTIAC        SUNNY      1  -6  73 W3        30.65R
RANTOUL        SUNNY      6  -2  70 W6        30.63R WCI  -5
ROBINSON       SUNNY     11   1  64 NW3       30.69R
SPRINGFIELD    SUNNY      1  -7  68 SW6       30.67S WCI -10
TAYLORVILLE    SUNNY      3  -6  66 SW5       30.67S WCI  -6
$$

...REGIONAL REPORTS...


CITY           SKY/WX    TMP DP  RH WIND       PRES   REMARKS
CHICAGO O`HARE SUNNY      9  -5  53 W8        30.58R WCI  -3
KANKAKEE       SUNNY      2  -4  75 W8        30.64R WCI -12
MOLINE         SUNNY      2  -7  66 W6        30.66R WCI  -9
MOUNT VERNON   SUNNY     12   1  62 NW6       30.67S WCI   3
PITTSFIELD     SUNNY      4  -4  68 NW5       30.67F WCI  -5
QUINCY         SUNNY      1  -6  72 NW6       30.66F WCI -10
ROCKFORD       SUNNY      5  -7  57 W5        30.62R WCI  -4
$$


CITY           SKY/WX    TMP DP  RH WIND       PRES   REMARKS
BURLINGTON     SUNNY     -1  -8  72 NW5       30.67R WCI -11
CEDAR RAPIDS   MOSUNNY   -8 -12  83 W7        30.63R WCI -23
DES MOINES     MOSUNNY    4  -6  63 NW5       30.64S WCI  -5
KIRKSVILLE     SUNNY      7  -3  64 N7        30.64F WCI  -5
OTTUMWA        SUNNY      2  -3  80 CALM      30.66R
ST LOUIS       MOSUNNY    9  -2  61 VRB7      30.67F WCI  -2
$$


CITY           SKY/WX    TMP DP  RH WIND       PRES   REMARKS
TERRE HAUTE    PTSUNNY   12  -2  53 N7        30.65R WCI   1
EVANSVILLE     SUNNY     19   8  62 N9        30.67R WCI   8
INDIANAPOLIS   MOSUNNY   13   0  56 W9        30.59R WCI   1
LAFAYETTE      SUNNY      9  -2  61 W5        30.62R WCI   1
MADISON        SUNNY      7  -7  52 W3        30.56R
MILWAUKEE      SUNNY     12  -6  44 W7        30.56R WCI   1
$$




USA.gov is the U.S. government's official web portal to all federal, state and local government web resources and services.